COSMOS 1408 DEB, 50058

Orbit data source: Space-Track

COSMOS 1408 DEB, 50058 is space debris in LEO originally from a launch on Thu, 16 Sep 1982 UTC launched from the Plesetsk Missile And Space Complex (PKMTR). Cosmos 1408 debris is a result of deliberate destruction of the defunct Soviet-era reconnaissance satellite Cosmos 1408 by a Russian anti-satellite missile in 2021. This event added many debris pieces to Earth's orbit, complicating space navigation and increasing collision risks for operational satellites and the International Space Station. The Cosmos 1408 debris has heightened concerns about space safety and militarization, emphasizing the urgent need for comprehensive space debris management strategies.

Loading next visibility...
Identifier
50058, 1982-092SW
Orbit
LEO
Country
Flag of CISCIS
Related business
Manufacturer
Yuzhnoe
Mission
Spacecraft
Bus & Motor
Unknown
Mass
Unknown
Launch date (UTC)
1982-09-16 (43 years ago)
Launch vehicle
Unknown
Launch site
Plesetsk Missile And Space Complex (PKMTR)
Object type
Payload
Rocket body
Debris
Shape & HBR
Unknown shape, 0.1 m
Radar Cross Section
Small (<0.1 m²)

Expand to show TLE details & history
Last TLE update: 17 hours ago

TLE from 17 hours ago
0 COSMOS 1408 DEB
1 50058U 82092SW  25300.94654125  .00033101  00000-0  39914-3 0  9992
2 50058  82.6107 117.1342 0015713 270.1423  89.8033 15.60455692220894
Epoch: 2025-10-27T22:43Z
TLE epoch observation values (Epoch: 2025-10-27T22:43:01.163Z)
Latitude
-0.00004°
Longitude
99.83826°
Altitude
389.465 km
Speed
7.676 km/s
True Right ascension
07h 48m 32s
True Declination
0° 00' 00"
Sunlit
Object was in daylight at epoch
Visualization orbit readout
Latitude
Unknown
Longitude
Unknown
Altitude
Unknown
Speed
Unknown
Apparent Right ascension
Unknown
Apparent Declination
Unknown
Sunlit
N/A
Visualization observer readout
Local Sidereal Time
11:31:19
Azimuth
Unknown
Elevation
Unknown
Doppler factor
Unknown
Orbital elements
Apogee altitude
393.875 km
Perigee altitude
372.627 km
Semi-major axis
6,761.388 km
Eccentricity
0.00157
Inclination
82.6107°
RAAN
117.1342°
Arg. of periapsis
270.1423°
True anomaly
89.98336°
Mean anomaly
89.8033°
Eccentric anomaly
89.89333°
Mean motion
3.90382 °/min
Orbital period
92.22 mins
BSTAR
0.00039914

Documentation

Showing up to 5 results
|